When you browse on this site, cookies collect data to enhance your experience and personalize the content and advertising you see.
Visit our Privacy Policy to learn more. By continuing to use the site, you agree to this use of cookies and data.
  • In Österreich
  • Länderverzeichnis
  • Für 7 Tage
  • Wassertemperatur
  • Wetterkarte
  • News
  • Widgets
  • user-avatar
    Anmelden

    Stündliche Wetter Booué

    Heute, 20 Januar, Montag

    Zeit Temperatur Niederschläge Wind Luftdruck Luftfeuchtigkeit
    00:00 +24°C° 1.3 mm 0 m/S 734 mmHg 89%
    01:00 +24°C° 0 mm 0 m/S 734 mmHg 92%
    02:00 +24°C° 0.3 mm 0 m/S 733 mmHg 92%
    03:00 +24°C° 0.3 mm 0 m/S 733 mmHg 92%
    04:00 +23°C° 0.3 mm 0 m/S 733 mmHg 93%
    05:00 +23°C° 0 mm 0 m/S 733 mmHg 93%
    06:00 +23°C° 0 mm 0 m/S 733 mmHg 93%
    07:00 +24°C° 0 mm 0 m/S 734 mmHg 93%
    08:00 +26°C° 0 mm 0 m/S 734 mmHg 84%
    09:00 +27°C° 0 mm 0 m/S 734 mmHg 76%
    10:00 +31°C° 0 mm 1 m/S 734 mmHg 68%
    11:00 +33°C° 0 mm 1 m/S 734 mmHg 62%
    12:00 +32°C° 0 mm 0 m/S 733 mmHg 56%
    13:00 +34°C° 0 mm 0 m/S 733 mmHg 50%
    14:00 +35°C° 0.7 mm 1 m/S 732 mmHg 56%
    15:00 +33°C° 0.7 mm 1 m/S 731 mmHg 62%
    16:00 +32°C° 0.7 mm 2 m/S 731 mmHg 67%
    17:00 +31°C° 0.2 mm 1 m/S 731 mmHg 73%
    18:00 +29°C° 0.2 mm 1 m/S 732 mmHg 78%
    19:00 +26°C° 0.2 mm 0 m/S 732 mmHg 83%
    20:00 +27°C° 0 mm 1 m/S 733 mmHg 85%
    21:00 +27°C° 0 mm 1 m/S 733 mmHg 86%
    22:00 +27°C° 0 mm 1 m/S 734 mmHg 87%
    23:00 +26°C° 0 mm 1 m/S 734 mmHg 89%

    Morgen, 21 Januar, Dienstag

    Zeit Temperatur Niederschläge Wind Luftdruck Luftfeuchtigkeit
    00:00 +26°C° 0 mm 1 m/S 733 mmHg 90%
    01:00 +26°C° 0 mm 1 m/S 733 mmHg 92%
    02:00 +25°C° 0 mm 1 m/S 733 mmHg 93%
    03:00 +25°C° 0 mm 1 m/S 733 mmHg 94%
    04:00 +23°C° 0 mm 0 m/S 733 mmHg 96%
    05:00 +23°C° 0 mm 0 m/S 733 mmHg 95%
    06:00 +23°C° 0 mm 0 m/S 734 mmHg 95%
    07:00 +23°C° 0 mm 0 m/S 735 mmHg 94%
    08:00 +27°C° 0 mm 1 m/S 735 mmHg 86%
    09:00 +29°C° 0 mm 1 m/S 735 mmHg 78%
    10:00 +31°C° 0 mm 1 m/S 735 mmHg 69%
    11:00 +31°C° 0.2 mm 1 m/S 734 mmHg 66%
    12:00 +32°C° 0.2 mm 1 m/S 734 mmHg 64%
    13:00 +34°C° 0.2 mm 2 m/S 733 mmHg 61%
    14:00 +32°C° 1.3 mm 1 m/S 732 mmHg 65%
    15:00 +32°C° 1.3 mm 1 m/S 732 mmHg 68%
    16:00 +31°C° 1.3 mm 1 m/S 731 mmHg 72%
    17:00 +30°C° 0.7 mm 1 m/S 732 mmHg 78%
    18:00 +28°C° 0.7 mm 1 m/S 732 mmHg 84%
    19:00 +27°C° 0.7 mm 1 m/S 733 mmHg 90%
    20:00 +26°C° 0 mm 1 m/S 733 mmHg 91%
    21:00 +26°C° 0 mm 1 m/S 734 mmHg 92%
    22:00 +26°C° 0 mm 1 m/S 734 mmHg 93%
    23:00 +25°C° 0 mm 1 m/S 734 mmHg 93%

    übermorgen, 22 Januar, Mittwoch

    Zeit Temperatur Niederschläge Wind Luftdruck Luftfeuchtigkeit
    00:00 +25°C° 0 mm 1 m/S 734 mmHg 94%
    01:00 +25°C° 0 mm 1 m/S 733 mmHg 95%
    02:00 +24°C° 0 mm 1 m/S 733 mmHg 96%
    03:00 +24°C° 0 mm 1 m/S 733 mmHg 97%
    04:00 +22°C° 0 mm 0 m/S 733 mmHg 98%
    05:00 +24°C° 0 mm 1 m/S 733 mmHg 98%
    06:00 +24°C° 0 mm 1 m/S 734 mmHg 97%
    07:00 +24°C° 0 mm 1 m/S 735 mmHg 97%
    08:00 +26°C° 0 mm 1 m/S 735 mmHg 88%
    09:00 +28°C° 0 mm 1 m/S 736 mmHg 80%
    10:00 +30°C° 0 mm 1 m/S 736 mmHg 71%
    11:00 +31°C° 0 mm 1 m/S 735 mmHg 65%
    12:00 +33°C° 0 mm 1 m/S 734 mmHg 59%
    13:00 +35°C° 0 mm 2 m/S 733 mmHg 53%
    14:00 +34°C° 0.1 mm 1 m/S 733 mmHg 53%
    15:00 +34°C° 0.1 mm 1 m/S 732 mmHg 52%
    16:00 +34°C° 0.1 mm 1 m/S 731 mmHg 52%
    17:00 +32°C° 0.2 mm 1 m/S 732 mmHg 61%
    18:00 +30°C° 0.2 mm 1 m/S 732 mmHg 69%
    19:00 +28°C° 0.2 mm 1 m/S 732 mmHg 78%
    20:00 +27°C° 0.4 mm 1 m/S 733 mmHg 81%
    21:00 +27°C° 0.4 mm 1 m/S 733 mmHg 85%
    22:00 +26°C° 0.4 mm 1 m/S 734 mmHg 88%
    23:00 +26°C° 0 mm 1 m/S 734 mmHg 90%

    23 Januar, Donnerstag

    Zeit Temperatur Niederschläge Wind Luftdruck Luftfeuchtigkeit
    00:00 +25°C° 0 mm 1 m/S 734 mmHg 92%
    01:00 +25°C° 0 mm 1 m/S 733 mmHg 93%
    02:00 +25°C° 0 mm 1 m/S 733 mmHg 95%
    03:00 +24°C° 0 mm 1 m/S 733 mmHg 96%
    04:00 +24°C° 0 mm 1 m/S 733 mmHg 97%
    05:00 +22°C° 0 mm 0 m/S 733 mmHg 97%
    06:00 +22°C° 0 mm 0 m/S 733 mmHg 97%
    07:00 +23°C° 0 mm 0 m/S 734 mmHg 96%
    08:00 +26°C° 0 mm 1 m/S 734 mmHg 89%
    09:00 +28°C° 0 mm 1 m/S 735 mmHg 82%
    10:00 +29°C° 0 mm 1 m/S 735 mmHg 74%
    11:00 +30°C° 0.1 mm 1 m/S 734 mmHg 70%
    12:00 +31°C° 0.1 mm 1 m/S 734 mmHg 66%
    13:00 +32°C° 0.1 mm 1 m/S 733 mmHg 62%
    14:00 +32°C° 0.1 mm 1 m/S 733 mmHg 60%
    15:00 +33°C° 0.1 mm 1 m/S 732 mmHg 59%
    16:00 +33°C° 0.1 mm 1 m/S 731 mmHg 58%
    17:00 +31°C° 0.5 mm 1 m/S 732 mmHg 67%
    18:00 +29°C° 0.5 mm 1 m/S 732 mmHg 76%
    19:00 +25°C° 0.5 mm 0 m/S 732 mmHg 85%
    20:00 +24°C° 0.1 mm 0 m/S 733 mmHg 87%
    21:00 +26°C° 0.1 mm 1 m/S 733 mmHg 89%
    22:00 +25°C° 0.1 mm 1 m/S 734 mmHg 91%
    23:00 +25°C° 0 mm 1 m/S 734 mmHg 92%

    24 Januar, Freitag

    Zeit Temperatur Niederschläge Wind Luftdruck Luftfeuchtigkeit
    00:00 +25°C° 0 mm 1 m/S 733 mmHg 94%
    01:00 +24°C° 0 mm 1 m/S 733 mmHg 95%
    02:00 +24°C° 0 mm 1 m/S 733 mmHg 96%
    03:00 +24°C° 0 mm 1 m/S 733 mmHg 97%
    04:00 +24°C° 0 mm 1 m/S 733 mmHg 98%
    05:00 +22°C° 0 mm 0 m/S 733 mmHg 98%
    06:00 +22°C° 0 mm 0 m/S 733 mmHg 98%
    07:00 +22°C° 0 mm 0 m/S 734 mmHg 97%
    08:00 +26°C° 0 mm 1 m/S 734 mmHg 90%
    09:00 +28°C° 0 mm 1 m/S 735 mmHg 82%
    10:00 +29°C° 0 mm 1 m/S 735 mmHg 74%
    11:00 +30°C° 0 mm 1 m/S 734 mmHg 69%
    12:00 +32°C° 0 mm 1 m/S 733 mmHg 63%
    13:00 +33°C° 0 mm 1 m/S 733 mmHg 58%
    14:00 +33°C° 0 mm 1 m/S 732 mmHg 56%
    15:00 +33°C° 0 mm 1 m/S 731 mmHg 54%
    16:00 +34°C° 0 mm 1 m/S 731 mmHg 52%
    17:00 +32°C° 0 mm 1 m/S 731 mmHg 59%
    18:00 +30°C° 0 mm 1 m/S 731 mmHg 66%
    19:00 +28°C° 0 mm 1 m/S 732 mmHg 73%
    20:00 +28°C° 0 mm 1 m/S 732 mmHg 75%
    21:00 +27°C° 0 mm 1 m/S 733 mmHg 78%
    22:00 +27°C° 0 mm 1 m/S 733 mmHg 80%
    23:00 +26°C° 0 mm 1 m/S 733 mmHg 83%

    25 Januar, Samstag

    Zeit Temperatur Niederschläge Wind Luftdruck Luftfeuchtigkeit
    00:00 +26°C° 0 mm 1 m/S 733 mmHg 85%
    01:00 +25°C° 0 mm 1 m/S 733 mmHg 88%
    02:00 +25°C° 0 mm 1 m/S 733 mmHg 90%
    03:00 +25°C° 0 mm 1 m/S 733 mmHg 93%
    04:00 +24°C° 0 mm 1 m/S 733 mmHg 95%
    05:00 +22°C° 0 mm 0 m/S 733 mmHg 95%
    06:00 +22°C° 0 mm 0 m/S 734 mmHg 95%
    07:00 +23°C° 0 mm 0 m/S 734 mmHg 95%
    08:00 +26°C° 0 mm 1 m/S 734 mmHg 87%
    09:00 +28°C° 0 mm 1 m/S 735 mmHg 80%
    10:00 +29°C° 0 mm 1 m/S 735 mmHg 73%
    11:00 +30°C° 0.1 mm 1 m/S 734 mmHg 70%
    12:00 +30°C° 0.1 mm 1 m/S 734 mmHg 67%
    13:00 +31°C° 0.1 mm 1 m/S 733 mmHg 64%
    14:00 +32°C° 0 mm 1 m/S 733 mmHg 61%
    15:00 +32°C° 0 mm 1 m/S 732 mmHg 57%
    16:00 +33°C° 0 mm 1 m/S 731 mmHg 54%
    17:00 +31°C° 0 mm 1 m/S 732 mmHg 61%
    18:00 +28°C° 0 mm 0 m/S 732 mmHg 68%
    19:00 +26°C° 0 mm 0 m/S 732 mmHg 75%
    20:00 +25°C° 0 mm 0 m/S 733 mmHg 77%
    21:00 +25°C° 0 mm 0 m/S 733 mmHg 79%
    22:00 +24°C° 0 mm 0 m/S 733 mmHg 81%
    23:00 +26°C° 0 mm 1 m/S 733 mmHg 84%
    Mehr zeigen